Stündliche Wetter Leipzig

Heute, 11 April, Sonntag

Zeit Temperatur Niederschläge Wind Luftdruck Luftfeuchtigkeit
00:00 +7°C° 0 mm 2 m/S 748 mmHg 93%
01:00 +8°C° 0 mm 2 m/S 748 mmHg 92%
02:00 +8°C° 0 mm 2 m/S 747 mmHg 91%
03:00 +8°C° 0 mm 3 m/S 747 mmHg 89%
04:00 +8°C° 0 mm 3 m/S 747 mmHg 88%
05:00 +9°C° 0 mm 3 m/S 747 mmHg 87%
06:00 +9°C° 0 mm 3 m/S 747 mmHg 85%
07:00 +10°C° 0 mm 3 m/S 746 mmHg 84%
08:00 +12°C° 0 mm 3 m/S 746 mmHg 78%
09:00 +13°C° 0 mm 4 m/S 746 mmHg 72%
10:00 +15°C° 0 mm 4 m/S 746 mmHg 66%
11:00 +17°C° 0.1 mm 4 m/S 746 mmHg 63%
12:00 +18°C° 0.1 mm 4 m/S 746 mmHg 61%
13:00 +18°C° 0.1 mm 4 m/S 746 mmHg 58%
14:00 +18°C° 0.3 mm 4 m/S 746 mmHg 59%
15:00 +18°C° 0.3 mm 3 m/S 746 mmHg 60%
16:00 +18°C° 0.3 mm 3 m/S 745 mmHg 61%
17:00 +16°C° 0.3 mm 3 m/S 746 mmHg 70%
18:00 +12°C° 0.3 mm 4 m/S 746 mmHg 79%
19:00 +9°C° 0.3 mm 5 m/S 746 mmHg 87%
20:00 +7°C° 1.4 mm 5 m/S 748 mmHg 90%
21:00 +5°C° 1.4 mm 5 m/S 749 mmHg 92%
22:00 +4°C° 1.4 mm 4 m/S 750 mmHg 94%
23:00 +3°C° 0.4 mm 4 m/S 751 mmHg 92%

Morgen, 12 April, Montag

Zeit Temperatur Niederschläge Wind Luftdruck Luftfeuchtigkeit
00:00 +3°C° 0.4 mm 4 m/S 751 mmHg 91%
01:00 +3°C° 0.4 mm 4 m/S 752 mmHg 89%
02:00 +1°C° 0 mm 4 m/S 753 mmHg 89%
03:00 +1°C° 0 mm 5 m/S 753 mmHg 89%
04:00 +1°C° 0 mm 5 m/S 754 mmHg 89%
05:00 +1°C° 0.1 mm 5 m/S 754 mmHg 88%
06:00 +1°C° 0.1 mm 4 m/S 755 mmHg 87%
07:00 +1°C° 0.1 mm 4 m/S 755 mmHg 86%
08:00 +1°C° 0.2 mm 4 m/S 756 mmHg 80%
09:00 +3°C° 0.2 mm 4 m/S 756 mmHg 75%
10:00 +3°C° 0.2 mm 4 m/S 757 mmHg 70%
11:00 +4°C° 0 mm 4 m/S 757 mmHg 66%
12:00 +4°C° 0 mm 4 m/S 757 mmHg 62%
13:00 +5°C° 0 mm 4 m/S 757 mmHg 58%
14:00 +5°C° 0 mm 4 m/S 757 mmHg 55%
15:00 +7°C° 0 mm 3 m/S 757 mmHg 53%
16:00 +7°C° 0 mm 3 m/S 757 mmHg 50%
17:00 +6°C° 0 mm 2 m/S 758 mmHg 54%
18:00 +6°C° 0 mm 2 m/S 758 mmHg 57%
19:00 +6°C° 0 mm 1 m/S 758 mmHg 61%
20:00 +5°C° 0 mm 1 m/S 759 mmHg 63%
21:00 +4°C° 0 mm 2 m/S 759 mmHg 65%
22:00 +3°C° 0 mm 2 m/S 759 mmHg 67%
23:00 +3°C° 0 mm 2 m/S 759 mmHg 69%

übermorgen, 13 April, Dienstag

Zeit Temperatur Niederschläge Wind Luftdruck Luftfeuchtigkeit
00:00 +2°C° 0 mm 2 m/S 759 mmHg 72%
01:00 +2°C° 0 mm 2 m/S 760 mmHg 75%
02:00 +1°C° 0 mm 2 m/S 760 mmHg 78%
03:00 +2°C° 0 mm 1 m/S 760 mmHg 81%
04:00 +1°C° 0 mm 1 m/S 760 mmHg 84%
05:00 +2°C° 0 mm 1 m/S 760 mmHg 81%
06:00 +2°C° 0 mm 1 m/S 761 mmHg 78%
07:00 +2°C° 0 mm 2 m/S 761 mmHg 75%
08:00 +4°C° 0 mm 2 m/S 761 mmHg 69%
09:00 +4°C° 0 mm 3 m/S 761 mmHg 62%
10:00 +5°C° 0 mm 3 m/S 761 mmHg 56%
11:00 +6°C° 0 mm 4 m/S 761 mmHg 52%
12:00 +7°C° 0 mm 4 m/S 761 mmHg 48%
13:00 +8°C° 0 mm 4 m/S 761 mmHg 44%
14:00 +8°C° 0 mm 4 m/S 761 mmHg 44%
15:00 +7°C° 0 mm 4 m/S 760 mmHg 44%
16:00 +7°C° 0 mm 4 m/S 760 mmHg 44%
17:00 +6°C° 0 mm 4 m/S 760 mmHg 52%
18:00 +4°C° 0 mm 3 m/S 760 mmHg 61%
19:00 +3°C° 0 mm 3 m/S 761 mmHg 70%
20:00 +2°C° 0 mm 3 m/S 761 mmHg 73%
21:00 +3°C° 0 mm 2 m/S 761 mmHg 77%
22:00 +2°C° 0 mm 2 m/S 761 mmHg 80%
23:00 +1°C° 0 mm 2 m/S 761 mmHg 82%

14 April, Mittwoch

Zeit Temperatur Niederschläge Wind Luftdruck Luftfeuchtigkeit
00:00 +1°C° 0 mm 2 m/S 761 mmHg 83%
01:00 -1°C° 0 mm 2 m/S 761 mmHg 85%
02:00 -1°C° 0 mm 2 m/S 761 mmHg 87%
03:00 -2°C° 0 mm 2 m/S 761 mmHg 89%
04:00 -2°C° 0 mm 2 m/S 761 mmHg 91%
05:00 -1°C° 0 mm 2 m/S 761 mmHg 89%
06:00 -1°C° 0 mm 2 m/S 762 mmHg 87%
07:00 0°C° 0 mm 3 m/S 762 mmHg 85%
08:00 +1°C° 0 mm 3 m/S 762 mmHg 77%
09:00 +3°C° 0 mm 3 m/S 761 mmHg 69%
10:00 +4°C° 0 mm 4 m/S 761 mmHg 60%
11:00 +5°C° 0.1 mm 4 m/S 761 mmHg 58%
12:00 +6°C° 0.1 mm 4 m/S 761 mmHg 56%
13:00 +6°C° 0.1 mm 5 m/S 760 mmHg 53%
14:00 +6°C° 0 mm 5 m/S 760 mmHg 52%
15:00 +6°C° 0 mm 4 m/S 759 mmHg 50%
16:00 +7°C° 0 mm 4 m/S 759 mmHg 48%
17:00 +5°C° 0 mm 4 m/S 759 mmHg 55%
18:00 +4°C° 0 mm 3 m/S 759 mmHg 61%
19:00 +4°C° 0 mm 2 m/S 759 mmHg 68%
20:00 +4°C° 0 mm 2 m/S 759 mmHg 71%
21:00 +3°C° 0 mm 2 m/S 759 mmHg 75%
22:00 +2°C° 0 mm 2 m/S 760 mmHg 79%
23:00 +2°C° 0 mm 2 m/S 760 mmHg 82%

15 April, Donnerstag

Zeit Temperatur Niederschläge Wind Luftdruck Luftfeuchtigkeit
00:00 +2°C° 0 mm 2 m/S 760 mmHg 85%
01:00 +2°C° 0 mm 2 m/S 760 mmHg 88%
02:00 +1°C° 0 mm 2 m/S 760 mmHg 88%
03:00 0°C° 0 mm 3 m/S 760 mmHg 87%
04:00 0°C° 0 mm 3 m/S 760 mmHg 87%
05:00 0°C° 0 mm 3 m/S 760 mmHg 83%
06:00 0°C° 0 mm 3 m/S 760 mmHg 80%
07:00 +1°C° 0 mm 3 m/S 760 mmHg 76%
08:00 +1°C° 0 mm 4 m/S 761 mmHg 70%
09:00 +3°C° 0 mm 4 m/S 761 mmHg 63%
10:00 +4°C° 0 mm 4 m/S 761 mmHg 57%
11:00 +4°C° 0 mm 4 m/S 761 mmHg 55%
12:00 +5°C° 0 mm 4 m/S 760 mmHg 52%
13:00 +5°C° 0 mm 4 m/S 760 mmHg 49%
14:00 +5°C° 0 mm 4 m/S 760 mmHg 52%
15:00 +5°C° 0 mm 4 m/S 760 mmHg 55%
16:00 +5°C° 0 mm 4 m/S 760 mmHg 58%
17:00 +4°C° 0 mm 3 m/S 760 mmHg 62%
18:00 +4°C° 0 mm 3 m/S 760 mmHg 65%
19:00 +4°C° 0 mm 2 m/S 760 mmHg 69%
20:00 +4°C° 0 mm 2 m/S 760 mmHg 72%
21:00 +3°C° 0 mm 2 m/S 760 mmHg 74%
22:00 +2°C° 0 mm 3 m/S 760 mmHg 77%
23:00 +2°C° 0 mm 3 m/S 760 mmHg 78%

16 April, Freitag

Zeit Temperatur Niederschläge Wind Luftdruck Luftfeuchtigkeit
00:00 +2°C° 0 mm 3 m/S 760 mmHg 80%
01:00 +1°C° 0 mm 3 m/S 760 mmHg 81%
02:00 +1°C° 0 mm 3 m/S 760 mmHg 85%
03:00 +1°C° 0 mm 2 m/S 760 mmHg 88%
04:00 +1°C° 0 mm 2 m/S 760 mmHg 91%
05:00 +1°C° 0.1 mm 2 m/S 760 mmHg 90%
06:00 +1°C° 0.1 mm 3 m/S 760 mmHg 90%
07:00 +1°C° 0.1 mm 3 m/S 760 mmHg 89%
08:00 +2°C° 0 mm 3 m/S 760 mmHg 83%
09:00 +4°C° 0 mm 3 m/S 760 mmHg 78%
10:00 +5°C° 0 mm 3 m/S 760 mmHg 72%
11:00 +7°C° 0 mm 3 m/S 760 mmHg 67%
12:00 +8°C° 0 mm 3 m/S 760 mmHg 62%
13:00 +9°C° 0 mm 3 m/S 760 mmHg 57%
14:00 +9°C° 0 mm 3 m/S 759 mmHg 55%
15:00 +10°C° 0 mm 3 m/S 759 mmHg 54%
16:00 +10°C° 0 mm 3 m/S 759 mmHg 52%
17:00 +9°C° 0 mm 3 m/S 759 mmHg 58%
18:00 +8°C° 0 mm 2 m/S 759 mmHg 64%
19:00 +6°C° 0 mm 2 m/S 759 mmHg 70%
20:00 +5°C° 0 mm 2 m/S 759 mmHg 75%
21:00 +4°C° 0 mm 2 m/S 759 mmHg 80%
22:00 +3°C° 0 mm 2 m/S 759 mmHg 85%
23:00 +3°C° 0 mm 2 m/S 759 mmHg 87%
Mehr zeigen

Wir brauchen deine Erlaubnis

Meteoprog und unser Service Anbieter werden persönliche Daten aufbewahren, so wie Cookies, Geräte Bezeichnung oder ähnliche Technologien von deinem Gerät und Prozess, so wie Persönliche Daten Inhalte und Werbungen, genauso wie social Media und den Verkehr zu analysieren.

  • Aufbewahrung und/oder Zugang zu deiner Geräte Informationen.

    Cookies, Geräte Bezeichnung oder andere Informationen, können aufbewahrt oder Zugang zu deinem Gerät erhalten, für den Grund, der oben angegeben wird.

  • Personalisierte Werbung und Inhalte, Messungen, Einblick in das Publikum und Produkt Entwicklung.

    Werbungen und Inhalte können personalisiert werden, basierend auf ein Profil. Mehr Daten können besser personalisierte Werbungen und Inhalte hinzufügen. Werbung und Inhalte können gezeigt und gemessen werden. Einblicke über das Publikum, welche die Werbung gesehen haben und den Inhalt, können abgeleitet werden. So wie Daten können genutzt werden, um es zu verbessern oder die Benutzer Erfahrung zu verbessern das System und die Software.

Wenn du “Ich stimme zu” klickst, erlaubst du uns, die Cookies zu benutzen die Geräte Bezeichnung, den Web oder ähnliche Technologien zu benutzen. Deine Settings, können in deinem Gerät bei deinem Browser geändert werden.

Für den bestimmten Zweck, berechtigten Interessen beruhen darauf, mehr als auf den Inhalt. Du kannst mehr darüber in unseren Privaten und Cookie Politik lesen.